Regional Weather Roundup
Issued by NWS

Home | Current Version | Previous Version | Text Only | Print | Product List | Glossary On
Versions: 1 2 3 4 5 6 7 8 9 10 11 12 13 14 15 16 17 18 19 20 21 22 23 24 25 26 27 28 29 30 31 32 33 34 35 36 37 38 39 40 41 42 43 44 45 46 47 48 49 50
000
ASUS44 KJAN 081210
RWRMS

MISSISSIPPI HOURLY WEATHER ROUNDUP
NATIONAL WEATHER SERVICE JACKSON MS
600 AM CST THU DEC 08 2016

NOTE: "FAIR: INDICATES FEW OR NO CLOUDS BELOW 12,000 FEET WITH NO
SIGNIFICANT WEATHER AND/OR OBSTRUCTIONS TO VISIBILITY.

MSZ001>002-007>008-010>013-018>021-025>028-034>036-081300-
NORTHWEST MISSISSIPPI

CITY           SKY/WX    TMP DP  RH WIND       PRES   REMARKS
CLEVELAND      CLOUDY    40  29  65 N15G24    30.41R WCI  31
GREENWOOD      CLOUDY    41  29  62 N8        30.38R
6HR MIN TEMP:  41; 6HR MAX TEMP:  44;

GREENVILLE     CLOUDY    40  28  62 N16       30.40R WCI  31
6HR MIN TEMP:  40; 6HR MAX TEMP:  44;

OXFORD         FAIR      36  25  64 N12       30.40R WCI  27
WINONA         CLOUDY    40  31  70 N10G17    30.33S WCI  34
$$

MSZ003>006-009-014>017-022>024-029>033-037>039-081300-
NORTHEAST MISSISSIPPI

CITY           SKY/WX    TMP DP  RH WIND       PRES   REMARKS
COLUMBUS AFB   CLOUDY    42  33  71 NW9       30.33R
6HR MIN TEMP:  39; 6HR MAX TEMP:  42;

GOLDN TRIANGLE CLOUDY    43  28  56 N9        30.29R
STARKVILLE     CLOUDY    41  32  70 N5        30.35R
TUPELO         CLOUDY    40  24  53 NW12      30.36R WCI  33
6HR MIN TEMP:  40; 6HR MAX TEMP:  43;

$$

MSZ040-058-081300-
CENTRAL MISSISSIPPI

CITY           SKY/WX    TMP DP  RH WIND       PRES   REMARKS
JACKSON INTL   CLOUDY    45  37  73 N12       30.32R
6HR MIN TEMP:  45; 6HR MAX TEMP:  49;

JACKSON HAWKNS CLOUDY    44  36  73 N8        30.34R
6HR MIN TEMP:  44; 6HR MAX TEMP:  48;

MADISON        FAIR      41  36  81 N3        30.34R
MERIDIAN KEY   MOCLDY    44  36  73 N8        30.31R
6HR MIN TEMP:  41; 6HR MAX TEMP:  47;

MERIDIAN NAS   NOT AVBL
VICKSBURG VKS  CLOUDY    45  37  76 N12       30.36R
$$

MSZ059>079-081300-
SOUTH MISSISSIPPI

CITY           SKY/WX    TMP DP  RH WIND       PRES   REMARKS
BROOKHAVEN     PTSUNNY  N/A N/A N/A N8        30.30R
COLUMBIA       LGT RAIN  48  45  87 N12       30.31R
HATTIESBURG    CLOUDY    48  44  86 N6        30.27R
6HR MIN TEMP:  46; 6HR MAX TEMP:  53;

LAUREL         CLOUDY    46  39  78 N8        30.29R
MCCOMB         CLOUDY    49  45  86 N10       30.27R FOG
6HR MIN TEMP:  48; 6HR MAX TEMP:  50; 6HR PCP:  0.02;

NATCHEZ        CLOUDY    45  39  81 N8        30.33R
6HR MIN TEMP:  45; 6HR MAX TEMP:  50; 6HR PCP:  0.05;

PINE BELT      CLOUDY    46  37  71 N12       30.29R
6HR MIN TEMP:  45; 6HR MAX TEMP:  52;

$$

MSZ080>082-081300-
COASTAL MISSISSIPPI

CITY           SKY/WX    TMP DP  RH WIND       PRES   REMARKS
BILOXI         CLOUDY    52  48  87 N8        30.23R
6HR MIN TEMP:  52; 6HR MAX TEMP:  58;

PASCAGOULA     CLOUDY    51  44  77 N9        30.23R
6HR MIN TEMP:  49; 6HR MAX TEMP:  58;

GULFPORT       CLOUDY    53  48  83 N8        30.24R
6HR MIN TEMP:  53; 6HR MAX TEMP:  59;

$$

LAZ007>009-015>016-023>026-081300-
NORTHEAST LOUISIANA

CITY           SKY/WX    TMP DP  RH WIND       PRES   REMARKS
BASTROP        CLOUDY    40  31  68 N6        30.41R
TALLULAH/VBURG CLOUDY    43  35  73 N10       30.37R
6HR MIN TEMP:  43; 6HR MAX TEMP:  48;

VIDALIA        LGT RAIN  44  41  89 N9        30.36R
$$



USA.gov is the U.S. government's official web portal to all federal, state and local government web resources and services.